This demonstration page uses our WeatherBlox Daily Observations layout. Learn more.

38.88101, -77.10428

Hourly Observations for June 5, 2019

Temp ( °F °C ) Dew Point ( °F °C ) Humidity (%) Winds ( mph kmh ) Pressure ( in mb ) Visibility ( mi km ) Precip ( " mm )
12:52 am 00:52 Mostly Cloudy 68 20 53 11.7 59 59 SSW 10 17 30.03 1017 10 16.0934 0 0
1:52 am 01:52 Mostly Cloudy 68 20 52 11.1 57 57 S 13 20 30.01 1016 10 16.0934 0 0
2:52 am 02:52 Mostly Cloudy 67 19.4 52 11.1 59 59 S 13 20 29.99 1016 10 16.0934 0 0
3:52 am 03:52 Mostly Cloudy 67 19.4 53 11.7 61 61 SSW 14 22 29.97 1015 10 16.0934 0 0
4:52 am 04:52 Mostly Cloudy 66 18.9 55 12.8 68 68 SSW 8 13 29.98 1015 10 16.0934 0 0
6:52 am 06:52 Cloudy 66 18.9 57 13.9 73 73 S 12 19 29.96 1015 10 16.0934 0 0
7:52 am 07:52 Cloudy 69 20.6 59 15 70 70 SW 6 9 29.96 1015 10 16.0934 0 0
8:52 am 08:52 Cloudy 73 22.8 62 16.7 69 69 SSW 13 20 29.95 1014 10 16.0934 0 0
9:52 am 09:52 Cloudy 76 24.4 63 17.2 64 64 SSW 12 19 29.94 1014 10 16.0934 0 0
10:52 am 10:52 Cloudy 78 25.6 65 18.3 64 64 S 14 22 29.93 1013 10 16.0934 0 0
11:52 am 11:52 Cloudy 77 25 66 18.9 69 69 SW 10 17 29.91 1013 10 16.0934 0 0
12:52 pm 12:52 Cloudy 80 26.7 67 19.4 64 64 SSW 13 20 29.89 1012 10 16.0934 0 0.0254
1:52 pm 13:52 Cloudy 82 27.8 67 19.4 60 60 SSW 14 22 29.88 1012 10 16.0934 0 0.0254
2:10 pm 14:10 Mostly Cloudy with Nearby Thunderstorms 80 26.7 66 18.9 62 62 SSW 14 22 29.87 1011 10 16.0934 0 0
2:48 pm 14:48 Cloudy 81 27 68 20 66 66 SSW 14 22 29.86 1011 10 16.0934 0 0
2:52 pm 14:52 Cloudy 81 27.2 68 20 65 65 SSW 14 22 29.86 1011 10 16.0934 0 0
3:52 pm 15:52 Cloudy 83 28.3 69 20.6 63 63 SSW 14 22 29.83 1010 10 16.0934 0 0
4:52 pm 16:52 Cloudy with Nearby Thunderstorms 82 27.8 66 18.9 58 58 WSW 14 22 29.8 1009 10 16.0934 0 0
4:58 pm 16:58 Mostly Cloudy with Thunderstorms 82 27.8 67 19.4 60 60 SW 15 24 29.81 1009 10 16.0934 0 0
5:31 pm 17:31 Cloudy with Nearby Thunderstorms 83 28.3 65 18.3 55 55 SW 16 26 29.8 1009 10 16.0934 0 0
5:52 pm 17:52 Cloudy 82 27.8 64 17.8 55 55 SW 15 24 29.79 1009 10 16.0934 0 0
6:52 pm 18:52 Mostly Cloudy 81 27.2 65 18.3 58 58 SW 10 17 29.75 1008 10 16.0934 0 0
7:52 pm 19:52 Mostly Cloudy 79 26.1 66 18.9 65 65 SSW 9 15 29.77 1008 10 16.0934 0 0
9:52 pm 21:52 Cloudy 77 25 69 20.6 77 77 SSW 14 22 29.79 1009 10 16.0934 0 0
10:43 pm 22:43 Cloudy 75 23.9 69 20.6 82 82 S 10 17 29.8 1009 10 16.0934 0.01 0.254
10:52 pm 22:52 Cloudy 75 23.9 69 20.6 82 82 SSW 14 22 29.8 1009 10 16.0934 0.01 0.254
11:05 pm 23:05 Cloudy with Light Rain 75 23.9 69 20.6 82 82 SSW 15 24 29.79 1009 6 9.65604 0 0.0254
11:52 pm 23:52 Mostly Cloudy 74 23.3 70 21.1 88 88 S 9 15 29.78 1009 10 16.0934 0 0.0254

Powered by AerisWeather